Theta_e
345 345 348 352 352 352 352 352 351 351 352 352 352 352 352 352 352 351 351 351 351 351 351 351 352 353 354 353 353 353 353 353 352 352 352 352 352 353 353 353 352 352 351 352 351 351 350 349 348 347 347 347 347 347 346 345 344 342 341 341 341 341 342 342 341 342 343 343 343 343 344 344 344 345 345 345 344 344 344 343 341 337 338 342 344
344 346 349 349 351 352 351 351 350 350 351 351 351 351 351 351 351 350 351 351 352 352 352 352 352 353 353 353 353 353 353 353 352 352 352 352 352 352 352 352 352 351 350 351 350 349 348 347 347 346 345 344 344 344 344 343 343 341 340 340 340 341 342 343 343 343 343 344 343 343 342 342 344 345 345 345 345 343 343 343 342 339 340 343 344
345 347 348 348 351 351 351 351 350 350 349 349 350 351 350 350 350 351 352 352 352 352 352 352 352 353 353 353 353 353 352 352 352 352 352 352 352 352 352 352 351 351 351 350 349 349 349 348 348 347 345 344 343 341 340 341 341 341 340 340 340 341 343 344 344 343 342 344 345 343 343 343 343 344 344 345 345 344 343 343 343 342 339 343 342
345 346 348 349 350 351 351 350 350 350 350 349 350 350 350 350 351 352 352 352 352 352 352 352 353 353 353 352 352 352 353 352 352 352 351 352 351 352 352 351 352 352 350 350 351 350 349 349 348 347 346 344 344 342 340 340 340 340 340 340 340 340 342 342 342 342 342 344 344 343 342 338 340 343 344 344 343 343 342 342 343 343 342 342 342
345 346 347 348 348 350 350 350 350 350 349 350 350 350 350 351 351 351 352 352 352 353 353 354 353 353 352 352 352 352 352 352 352 352 352 351 351 351 351 351 351 350 350 350 350 350 350 349 349 348 347 345 344 342 342 341 341 341 342 340 340 340 340 342 342 341 342 343 347 350 335 337 338 342 342 342 341 340 340 340 340 342 342 341 340
344 346 347 348 347 348 350 350 350 350 350 350 351 351 351 351 351 352 352 352 353 353 354 354 353 352 352 352 353 352 352 352 352 351 351 351 351 351 350 351 351 350 350 350 349 349 350 350 349 349 348 348 345 343 342 341 340 341 342 341 339 340 341 341 341 341 342 344 345 343 338 337 336 337 341 340 340 339 340 339 340 340 339 340 339
345 347 347 347 347 349 350 351 351 351 351 351 351 351 351 352 352 352 353 353 353 354 353 353 353 353 352 352 353 352 352 352 351 351 351 351 350 350 351 351 350 350 350 349 349 349 349 350 349 349 348 348 347 345 343 342 341 340 341 341 341 341 341 342 342 341 344 343 342 343 339 338 337 336 340 341 341 340 340 340 341 343 343 340 339
347 347 345 346 346 349 351 351 351 351 351 351 351 352 352 353 353 353 353 354 353 353 353 353 353 353 353 353 352 352 351 351 351 351 351 351 350 351 351 351 350 350 351 350 349 349 349 348 348 348 347 347 347 344 343 342 341 340 341 341 342 341 343 342 344 344 345 344 342 339 338 337 336 336 341 344 344 344 342 345 344 343 343 341 340
345 346 345 346 347 350 352 352 351 352 352 352 353 353 353 353 353 354 353 353 353 353 353 353 352 352 352 352 351 351 351 351 351 350 350 350 350 350 349 350 349 349 349 348 348 348 348 347 346 345 345 346 345 345 344 343 341 340 340 341 342 342 343 344 344 345 344 341 340 338 337 336 335 336 341 342 343 344 343 342 342 343 342 341 339
346 346 345 346 346 351 352 352 353 353 353 353 353 354 353 353 354 353 353 353 353 352 353 352 352 352 352 351 351 351 351 351 350 350 350 350 349 350 349 348 348 348 348 347 347 347 347 346 344 344 345 346 346 343 344 343 342 341 340 341 342 342 343 344 345 344 341 335 337 338 341 341 336 337 339 341 341 341 341 342 341 341 340 340 339
346 345 345 345 345 351 352 352 353 353 354 354 353 353 354 354 353 353 353 353 353 352 352 352 352 352 352 352 351 351 350 350 347 348 348 348 348 347 347 348 347 347 347 346 345 346 346 346 344 344 346 347 347 345 343 343 342 341 342 340 342 342 342 343 342 337 338 330 332 335 345 346 337 337 341 340 339 340 340 340 340 340 339 338 338
345 345 345 345 351 351 352 352 353 353 353 353 353 354 354 353 353 353 353 353 352 352 352 352 351 351 351 350 351 350 350 349 347 346 345 346 346 346 345 345 344 345 345 345 345 345 345 344 344 344 345 346 347 347 347 344 342 341 342 342 341 343 343 344 341 337 334 333 337 339 337 336 336 338 339 339 340 339 338 338 337 337 338 337 336
344 344 344 345 348 351 351 352 352 353 353 353 353 353 353 353 353 352 352 352 352 351 351 351 351 350 350 350 350 350 348 347 347 346 345 345 344 344 344 343 343 343 343 345 344 344 345 343 343 345 346 347 347 347 348 347 344 342 342 343 343 343 344 344 339 339 333 335 335 337 336 335 335 339 338 339 339 337 338 337 336 336 337 335 334
343 343 343 343 345 351 351 351 352 352 353 352 353 353 353 352 353 352 352 352 351 351 351 351 350 350 350 349 349 349 347 346 346 346 346 345 344 342 342 342 342 342 341 343 344 344 344 345 345 344 345 346 347 347 349 347 345 344 343 344 344 344 345 344 342 340 337 333 330 340 338 337 335 338 338 339 337 338 338 338 338 337 336 334 335
343 343 344 344 344 346 352 351 352 352 353 352 352 352 352 352 352 352 351 351 351 351 351 350 350 350 349 349 349 348 346 346 346 346 345 345 345 343 342 341 341 341 341 341 343 343 344 343 343 343 344 345 347 347 346 347 346 344 345 345 346 346 345 339 339 340 333 333 335 339 336 335 340 339 339 338 337 337 337 338 338 336 334 333 335
345 344 344 344 344 345 346 352 352 352 352 352 352 352 352 351 352 351 351 351 351 351 351 350 350 350 349 348 348 347 347 346 345 345 344 345 345 345 343 341 341 342 341 342 342 342 343 342 342 341 344 345 346 346 347 347 346 345 345 346 346 345 345 345 342 342 336 332 327 338 335 337 340 339 338 338 338 338 338 337 337 335 333 334 333
345 345 343 344 344 343 345 347 350 351 351 351 351 351 351 351 351 351 351 350 350 350 350 350 349 349 349 348 348 348 346 345 345 345 345 345 345 344 344 342 340 341 341 341 341 342 342 342 341 344 342 345 346 347 345 346 346 346 345 346 345 346 346 347 343 342 330 325 334 334 333 335 338 339 339 338 337 338 337 336 334 335 333 333 333
345 345 344 344 344 344 345 346 348 348 349 349 350 350 350 350 350 350 350 350 350 350 350 349 348 348 348 348 347 346 346 346 346 346 345 345 345 345 345 344 343 341 340 341 341 342 341 341 341 341 345 343 344 344 346 346 346 345 346 345 346 346 346 348 342 342 331 335 335 337 334 339 341 339 338 337 337 336 336 335 334 334 334 333 333
345 345 345 345 344 346 345 344 346 346 347 348 349 349 350 350 350 350 350 349 350 349 349 349 349 349 348 348 348 347 346 346 345 345 345 344 346 346 345 345 343 341 340 339 340 341 341 339 341 341 341 344 343 345 346 346 346 345 346 346 346 346 349 346 341 342 339 341 335 333 335 342 339 338 338 336 336 335 335 335 335 334 333 333 333
345 346 347 346 347 346 344 344 344 343 344 347 348 348 350 350 350 350 349 349 349 349 349 349 349 349 349 349 348 347 346 344 344 343 346 346 345 345 343 344 344 342 341 340 340 340 340 341 339 341 339 341 345 346 346 347 346 346 346 346 346 347 340 340 343 343 336 334 336 332 341 341 339 339 338 337 336 335 335 334 335 334 332 332 332
346 347 348 348 348 346 347 345 344 345 344 345 347 348 348 350 349 349 350 350 349 349 349 349 349 349 349 349 349 348 348 345 344 342 346 341 343 342 342 343 343 344 342 341 341 342 341 341 341 338 341 341 342 345 346 347 347 346 346 346 346 343 340 342 344 336 336 332 336 335 343 342 342 340 341 338 337 335 335 335 335 334 332 332 332
342 344 348 348 347 346 345 346 346 346 344 343 345 347 348 348 348 348 349 349 349 349 348 348 350 346 349 348 349 349 349 347 348 347 346 344 344 345 344 344 344 344 343 343 342 340 341 341 341 342 341 341 343 342 346 347 348 347 346 345 343 340 341 344 342 334 334 333 335 340 345 343 341 340 340 340 338 336 336 335 335 334 334 333 332
340 342 345 347 346 346 347 346 345 344 344 343 343 344 346 347 345 347 349 350 350 349 348 349 347 344 344 346 349 350 349 347 348 347 349 348 345 346 345 343 344 344 345 344 344 344 342 341 340 340 340 343 341 337 343 342 345 347 347 345 341 342 343 344 342 338 335 339 334 343 345 344 342 339 340 340 338 338 337 335 335 335 334 334 333
340 341 343 344 344 345 345 345 343 345 343 340 341 342 343 344 343 346 348 348 349 348 348 346 342 344 343 350 354 349 351 349 346 350 351 347 346 346 346 346 345 343 344 345 344 345 345 344 342 340 342 337 335 337 337 343 343 344 344 343 343 344 344 340 339 336 336 339 336 346 345 344 342 340 340 340 340 339 338 337 336 335 335 334 332
341 342 341 342 343 344 344 344 345 345 343 340 339 340 343 342 341 346 345 346 346 346 346 350 351 350 348 351 351 350 350 352 350 349 351 352 346 345 345 345 345 343 343 342 342 340 344 340 335 340 332 331 331 332 335 341 343 342 343 343 343 344 341 342 341 337 338 340 339 345 346 344 342 340 340 341 341 340 339 338 337 336 335 333 333
342 339 339 340 342 344 344 343 344 345 344 341 341 340 342 340 341 343 344 343 345 345 349 349 348 350 350 352 349 348 348 350 349 348 350 349 348 350 349 349 347 348 346 341 343 345 339 341 337 332 329 330 329 332 341 341 341 341 342 343 340 342 341 337 334 342 342 341 338 345 345 344 342 341 341 341 342 341 340 339 339 338 336 336 334
339 337 338 339 342 343 343 342 343 344 345 343 342 340 340 346 346 347 345 345 348 345 347 347 348 351 351 351 350 347 343 345 346 348 346 346 346 346 348 348 346 347 347 343 345 349 347 342 343 340 338 337 334 336 341 339 337 336 334 333 334 336 339 339 336 340 340 340 340 346 345 343 343 343 341 342 342 343 342 340 340 338 337 336 336
337 337 336 338 340 339 340 342 342 344 347 346 342 340 346 345 347 346 346 348 346 348 347 348 349 350 352 350 351 346 344 344 345 347 344 344 344 345 347 348 344 346 349 348 350 347 347 345 345 342 338 336 335 342 340 339 341 341 336 336 334 334 333 334 338 339 335 335 339 345 344 344 345 343 344 342 342 344 344 342 341 340 339 341 338
335 336 336 337 338 340 340 337 339 344 347 346 339 344 344 346 345 345 349 346 347 348 347 348 348 349 349 348 349 349 348 346 345 345 344 340 343 349 350 348 345 346 345 347 349 345 343 347 348 344 343 340 341 339 339 338 343 339 337 336 335 334 334 336 339 338 337 341 341 343 347 345 344 343 344 343 343 343 344 344 343 342 341 341 341
336 336 336 338 337 338 337 336 341 345 345 347 344 347 344 344 349 349 350 352 350 348 349 350 355 351 349 349 349 351 349 347 346 346 342 341 347 348 352 351 345 346 347 344 344 346 348 346 344 343 340 347 342 340 341 340 341 338 337 336 338 337 337 341 338 337 346 341 344 340 346 346 343 342 343 344 344 344 344 345 345 344 341 343 341
337 336 336 337 340 337 338 341 344 346 345 343 347 345 346 348 348 349 349 348 350 349 351 354 353 349 351 352 350 349 351 349 346 346 346 344 347 349 349 347 348 349 351 346 353 351 348 348 346 345 348 344 346 345 341 344 340 341 340 336 337 347 340 336 339 337 337 341 341 343 339 345 344 343 342 343 345 344 344 344 344 345 344 344 342
337 337 337 338 340 342 342 342 344 345 344 340 337 335 337 336 340 346 349 349 352 350 350 352 350 351 351 351 351 353 350 351 354 349 350 349 349 347 350 350 348 350 349 349 349 350 347 345 343 344 346 346 342 342 342 341 340 337 337 335 339 339 339 339 339 338 336 339 344 339 339 342 345 343 343 342 343 345 344 344 344 345 345 345 343
337 341 339 339 337 337 336 337 338 337 337 338 338 338 340 339 339 338 339 349 348 349 350 349 353 352 351 351 351 352 356 349 354 351 348 347 348 352 349 349 352 352 351 350 350 350 351 346 350 347 347 344 341 340 342 339 337 338 339 335 336 341 343 340 337 338 339 337 339 343 340 338 338 344 344 343 342 342 344 344 344 344 345 346 345
335 338 337 332 333 335 335 335 337 337 338 340 339 339 338 339 340 338 339 341 348 348 347 351 351 350 349 351 348 352 352 352 352 350 351 348 352 349 346 347 351 350 351 353 349 348 349 346 347 345 345 344 339 339 339 339 338 338 337 339 337 338 340 340 336 336 340 337 341 341 338 336 337 338 341 343 342 342 342 342 344 344 344 344 344
335 335 336 335 336 338 337 337 336 336 337 340 340 340 339 339 340 341 339 338 342 346 348 349 348 347 348 349 351 350 351 352 351 351 349 349 344 347 345 347 347 349 346 348 347 347 346 343 341 341 343 342 339 339 339 337 338 337 338 339 338 338 339 338 338 338 337 337 340 338 338 339 340 342 342 339 344 343 343 342 342 343 344 344 344
334 334 334 335 335 335 335 336 338 337 338 337 337 340 340 340 342 341 341 340 340 343 346 348 347 348 348 348 349 350 350 351 351 350 351 347 346 345 349 351 348 347 347 347 345 343 345 343 342 341 339 338 338 337 338 338 340 338 338 338 340 341 339 338 339 338 338 339 337 339 340 341 340 340 344 340 339 341 343 342 341 341 342 343 344
336 335 334 334 335 336 338 336 335 337 336 338 339 338 340 340 341 341 341 341 340 342 345 348 348 348 346 346 349 348 347 348 348 348 351 348 347 347 347 347 351 348 348 348 345 341 342 343 344 344 342 338 339 337 336 336 337 338 338 339 339 340 339 340 340 340 342 339 338 337 338 340 341 347 342 340 338 339 342 342 342 340 340 340 341
336 335 335 338 337 338 337 336 336 338 339 337 340 339 340 341 341 341 339 337 339 339 347 344 345 345 346 344 345 347 347 345 346 346 348 347 347 347 345 345 344 347 345 346 343 343 342 343 340 343 341 340 337 335 335 336 337 337 337 337 338 339 338 339 340 340 339 338 339 339 340 341 342 341 340 341 340 341 341 341 342 341 340 339 340
334 336 336 334 336 336 335 336 336 339 340 339 338 339 340 340 339 340 339 339 339 339 343 344 343 343 344 344 344 346 344 344 343 343 343 342 341 341 341 342 341 341 340 339 339 339 339 340 339 338 341 340 338 338 337 337 336 337 336 336 338 339 340 340 340 339 339 339 339 339 342 339 340 339 339 339 340 341 340 342 340 339 339 339 339
334 336 335 335 337 338 338 338 338 339 338 339 338 337 339 338 336 337 337 336 336 337 342 341 341 340 342 342 342 342 341 342 341 342 342 341 340 340 340 340 340 339 338 336 336 336 336 336 336 336 336 336 338 339 338 337 336 336 335 337 339 340 340 340 340 340 339 339 339 339 337 337 337 339 338 338 339 339 340 341 341 340 339 339 338
335 335 333 333 336 337 338 337 338 337 337 338 335 335 334 335 335 336 334 333 335 339 339 340 339 340 340 340 340 341 340 340 339 340 338 339 339 339 338 336 336 336 335 334 335 335 335 335 334 335 334 333 333 335 336 335 333 330 332 331 333 335 336 338 339 339 339 339 340 337 335 336 337 336 336 337 337 336 338 338 340 341 339 339 337
332 333 333 334 336 338 336 335 338 338 337 336 337 337 338 336 334 331 333 333 336 337 335 337 338 338 338 337 338 337 336 336 337 337 336 335 335 335 335 334 334 333 334 334 333 334 333 332 331 330 332 331 330 334 334 332 328 326 324 325 327 331 334 336 338 341 340 338 336 335 337 338 338 337 338 337 336 335 334 335 336 338 339 339 338
333 334 336 335 335 337 337 336 336 337 338 338 337 336 338 339 337 334 333 334 337 337 336 337 337 335 335 334 334 334 333 331 332 333 332 332 332 332 332 333 332 332 331 331 331 330 331 330 329 328 327 329 329 332 331 331 325 327 327 325 321 321 325 334 335 339 339 338 338 335 335 335 336 336 336 335 334 334 334 333 334 335 339 338 338
333 334 335 333 334 335 335 336 336 335 336 337 336 336 337 337 338 335 338 337 334 337 337 335 333 331 330 331 330 330 329 329 328 329 329 328 329 328 329 330 329 330 329 328 328 327 328 328 327 327 326 322 323 325 329 330 330 326 319 320 320 321 317 322 323 327 330 331 333 333 335 335 334 333 335 334 333 333 334 333 333 335 336 337 338
333 334 334 333 334 333 335 335 335 335 335 335 336 337 338 336 335 335 339 337 338 335 333 330 330 328 327 326 326 327 327 326 327 326 327 326 326 327 326 327 327 327 327 325 326 326 326 325 324 324 323 322 320 322 324 327 327 329 325 322 319 317 317 320 322 322 329 326 327 329 331 333 333 333 333 332 333 332 332 331 332 335 337 337 337
333 332 333 334 335 335 336 336 335 337 336 336 336 338 337 335 333 331 332 332 329 329 327 327 326 325 324 326 325 325 325 325 324 324 324 325 324 325 325 324 325 326 326 327 325 323 322 322 322 322 322 323 321 319 319 323 324 326 325 324 324 319 318 320 319 315 324 325 326 327 328 329 330 329 330 328 328 328 330 331 331 332 334 336 335
332 334 334 335 335 336 336 334 334 336 336 336 337 338 336 336 336 333 333 330 326 327 328 328 327 326 327 325 323 324 323 323 323 322 322 323 324 324 323 323 322 322 325 322 321 321 321 321 323 322 321 321 321 317 317 318 320 321 321 322 322 321 322 318 315 317 314 320 323 324 325 328 328 328 328 328 327 327 329 331 331 331 332 333 334
330 332 334 333 333 334 335 332 332 331 333 335 335 336 336 335 334 332 331 328 327 325 326 326 327 325 324 323 323 322 322 322 321 320 321 321 322 322 321 321 320 320 321 319 319 320 321 322 321 321 320 319 318 316 315 317 314 315 318 318 318 319 319 320 320 317 315 312 314 320 322 322 323 324 328 327 326 327 328 329 330 329 329 332 332
330 331 332 333 333 332 331 330 329 330 331 332 332 332 333 334 334 332 329 328 328 327 326 326 324 323 321 322 321 319 320 321 320 320 320 320 320 320 319 318 318 319 319 319 319 319 320 319 318 318 317 317 316 316 316 314 314 314 314 315 316 316 316 317 318 317 313 311 311 312 313 318 319 321 322 323 324 324 324 325 327 328 329 330 332
328 330 331 332 331 329 328 327 327 328 329 330 331 330 330 331 329 330 327 326 326 325 325 324 323 323 321 320 321 321 319 320 320 319 319 318 318 318 317 317 317 318 318 317 317 318 318 317 317 317 315 315 314 315 315 313 314 314 314 313 312 313 313 313 314 313 313 313 309 309 311 311 310 314 318 319 319 320 321 322 324 326 326 327 328
328 329 330 329 328 327 326 325 326 327 327 328 328 327 328 327 326 326 326 325 325 324 323 322 322 321 319 318 318 319 319 319 320 318 318 317 317 317 317 316 317 318 317 315 316 316 316 315 315 315 314 314 313 314 314 314 313 313 312 313 311 311 310 310 310 311 310 309 308 308 309 310 310 309 313 315 316 317 318 320 321 322 324 326 329
Wind_Speed
13 15 12 15 15 16 16 16 16 18 17 16 17 17 16 15 15 15 14 14 13 13 12 12 11 11 11 10 11 11 11 11 11 11 11 11 12 12 12 12 12 13 14 14 14 14 14 13 13 13 12 12 13 12 11 11 12 11 11 10 10 10 11 11 13 13 13 13 13 14 13 12 12 13 14 15 15 16 18 14 14 10 7 11 15
15 14 12 13 16 16 16 16 16 17 17 16 16 17 16 15 14 14 14 13 13 13 13 12 12 11 11 11 11 11 11 11 12 11 11 11 12 12 12 12 13 13 13 14 14 14 13 13 13 13 13 12 11 11 11 11 11 11 10 9 8 10 11 12 12 12 13 15 15 15 14 13 13 13 14 15 15 16 16 15 15 9 6 13 14
15 14 12 14 16 16 17 17 16 17 17 16 16 16 16 15 14 14 13 13 13 13 12 11 11 11 11 11 11 11 11 11 11 11 10 10 11 12 12 12 12 12 13 13 14 14 13 13 13 13 13 12 11 11 10 10 9 10 9 8 6 6 7 9 10 10 11 13 15 16 16 14 13 13 13 14 14 15 14 14 13 12 7 13 13
17 13 13 14 17 16 17 17 17 17 16 15 16 16 16 15 13 13 13 13 12 12 11 11 11 11 11 12 12 12 12 12 11 11 12 11 11 12 11 12 12 12 12 12 13 13 13 13 13 12 12 11 11 11 11 10 9 9 8 5 4 4 5 5 6 7 7 11 15 12 6 7 9 12 12 12 13 13 12 12 13 12 12 11 14
16 13 13 12 13 15 17 17 17 17 16 16 15 15 15 15 13 13 13 12 12 11 12 11 11 12 12 12 12 13 13 12 12 11 11 11 12 12 11 12 12 12 11 11 12 12 12 12 12 12 11 11 11 10 10 9 9 8 7 4 2 1 2 3 3 2 3 4 9 4 7 7 6 11 11 11 11 11 10 11 11 10 11 13 14
14 13 12 12 13 14 17 16 17 17 17 16 15 15 15 14 13 12 12 12 11 11 12 12 12 12 12 13 13 13 13 13 13 12 11 11 11 12 12 12 12 12 11 11 11 11 11 12 12 11 10 10 10 10 10 9 6 6 4 3 0 1 2 1 2 2 3 6 7 3 3 6 6 6 10 10 10 10 10 10 10 11 9 11 14
15 11 11 12 11 13 16 16 17 16 16 16 15 14 14 13 13 12 12 12 11 12 12 12 12 13 13 14 14 13 14 13 13 12 12 11 11 11 11 12 12 11 10 10 10 10 10 10 10 10 10 9 9 9 9 8 6 4 4 3 3 2 2 3 5 3 5 4 5 5 3 7 6 6 8 8 9 8 10 10 11 11 13 11 13
12 11 11 11 11 15 16 16 16 16 16 15 14 14 14 13 13 12 12 11 12 12 13 13 13 14 13 13 13 14 13 13 13 13 12 11 11 10 11 11 11 11 10 10 9 9 9 9 9 9 8 8 8 8 8 7 5 4 2 2 3 3 5 5 6 8 10 6 7 4 7 7 7 6 7 10 10 9 8 13 12 12 13 13 13
13 13 12 11 13 18 14 14 15 16 15 15 14 14 14 13 12 13 13 13 13 13 13 13 14 14 13 13 13 13 13 13 13 12 11 12 11 11 11 11 11 11 11 10 9 9 9 8 7 8 7 7 6 6 7 6 4 1 1 4 5 7 7 8 10 10 8 6 1 7 7 7 7 5 8 9 10 11 10 10 10 13 13 13 13
14 13 12 10 12 16 14 13 14 16 15 15 14 14 14 14 14 14 14 14 14 13 14 14 14 14 13 13 13 13 13 12 12 11 11 11 10 9 9 9 9 9 9 9 8 8 7 6 6 7 7 6 6 4 4 5 4 1 2 5 7 8 9 10 11 11 6 4 8 8 8 11 7 6 8 8 9 10 11 12 9 10 9 12 12
14 12 12 11 15 12 13 13 13 15 15 15 15 14 14 14 14 15 14 14 14 14 14 14 14 13 13 13 13 13 13 12 11 11 10 10 10 10 10 9 8 7 8 7 6 7 6 6 6 6 6 6 5 5 3 3 3 2 3 5 7 9 11 10 11 6 8 4 4 5 10 14 7 4 7 7 8 9 10 10 10 10 10 10 11
15 13 12 11 15 12 12 12 13 14 15 14 14 14 14 15 15 15 15 15 15 15 14 13 13 13 13 13 13 12 12 12 11 11 11 10 10 9 9 8 7 7 7 7 6 5 5 6 6 6 6 6 5 5 3 2 3 2 3 7 7 9 11 13 9 5 5 5 2 6 9 9 7 6 8 7 7 8 8 8 8 9 9 9 8
15 13 13 11 11 11 11 12 14 13 13 15 14 14 14 15 16 16 16 15 15 14 14 14 13 12 12 12 12 12 12 11 11 11 11 11 10 9 8 8 7 6 6 6 6 5 5 6 6 6 7 6 5 4 3 3 2 3 4 7 8 9 10 12 8 9 4 3 4 10 9 8 4 8 7 6 6 5 6 7 7 8 9 7 6
15 14 13 11 10 14 11 11 12 13 13 13 13 14 14 15 16 16 15 15 14 14 13 13 12 12 12 11 12 12 11 11 11 11 11 11 10 9 8 7 6 6 5 5 6 5 5 5 5 6 6 7 6 5 3 2 3 3 5 7 9 9 10 10 10 9 0 1 5 11 8 5 5 8 7 5 5 5 6 6 7 7 6 6 7
16 16 13 11 11 12 14 11 11 11 12 12 13 14 14 15 15 15 15 15 13 13 13 12 12 11 11 11 12 11 11 11 11 10 10 10 9 9 8 8 6 6 5 4 5 5 5 4 5 4 5 6 5 4 3 1 2 3 5 7 9 10 11 7 7 9 3 1 1 11 8 5 9 9 7 5 4 4 5 6 6 6 6 5 7
17 17 15 12 12 12 11 13 14 14 13 14 13 14 14 15 15 15 15 14 13 13 13 12 12 11 11 11 11 11 11 11 10 10 10 9 9 8 7 7 6 6 5 5 4 4 3 3 3 3 4 4 4 3 2 1 2 3 6 8 10 10 11 9 6 8 5 3 5 9 8 6 9 7 6 4 4 3 4 4 5 5 4 6 4
16 16 16 14 13 12 11 11 12 16 13 14 13 14 14 14 15 15 14 13 13 13 12 12 12 11 11 11 10 10 11 11 10 10 9 9 8 8 7 6 6 5 5 4 4 3 3 2 2 2 2 3 2 2 2 1 3 5 6 9 10 11 11 10 6 7 1 4 6 8 6 6 7 7 5 4 4 3 2 4 2 4 4 3 5
16 15 15 15 13 12 10 11 12 10 11 12 13 13 13 14 15 15 14 13 13 12 12 11 11 11 11 11 10 10 10 11 10 10 9 8 8 7 7 6 6 5 4 3 4 3 2 1 2 2 3 1 1 1 1 3 3 5 7 9 10 11 10 11 7 7 1 3 6 6 5 8 9 7 5 4 3 3 1 3 3 2 2 4 3
15 15 14 13 13 12 12 11 10 10 10 8 8 10 13 14 15 15 14 13 12 12 12 11 11 10 10 11 11 11 10 11 11 10 8 8 9 9 7 5 5 4 4 3 2 2 1 0 1 2 4 3 1 2 4 5 5 6 8 10 11 10 13 9 6 7 3 1 8 6 5 10 8 7 4 3 3 1 1 2 1 3 3 3 3
14 12 12 11 11 11 10 10 9 9 8 8 8 9 12 14 14 15 14 13 12 11 12 11 11 10 10 10 9 8 9 8 11 9 9 7 4 7 6 5 4 4 4 4 3 2 2 1 1 3 4 5 4 3 4 7 7 8 8 10 9 11 7 5 8 10 2 5 6 6 9 11 10 6 4 4 3 2 1 0 1 1 2 2 2
8 10 9 9 11 11 11 9 10 9 8 8 7 9 10 13 12 13 13 12 12 11 11 11 10 10 9 9 8 6 5 5 6 6 9 7 8 7 5 5 4 4 4 4 4 4 4 3 3 4 6 6 5 5 6 8 9 9 9 9 8 5 6 6 8 5 2 5 7 6 12 11 10 7 4 5 5 3 2 3 1 3 0 2 2
10 7 7 9 9 10 11 9 7 10 9 7 6 7 9 10 9 9 8 10 10 10 9 7 8 5 9 7 5 5 5 5 5 7 5 7 7 8 6 5 5 4 5 5 5 5 5 5 6 6 8 7 6 4 5 8 10 10 9 8 5 4 6 7 6 3 6 5 5 8 12 11 11 8 5 6 6 5 4 3 3 3 2 3 2
9 10 7 9 8 8 10 10 10 9 9 7 6 7 9 7 9 8 7 9 9 9 7 8 8 6 6 7 6 3 3 4 4 5 6 7 7 8 7 7 7 7 6 6 5 7 7 7 8 8 8 9 4 4 5 5 5 11 9 5 4 5 7 8 3 4 5 4 4 11 11 11 11 9 6 7 7 7 5 5 4 4 4 4 2
12 9 8 8 9 9 10 10 11 9 8 7 6 6 6 7 7 7 6 6 6 7 9 7 5 7 5 4 3 4 2 3 6 9 9 5 5 8 8 7 7 7 7 5 6 7 8 8 8 8 5 5 4 6 6 4 5 4 5 5 5 6 7 4 2 5 5 2 6 12 10 10 11 10 7 7 8 8 7 6 5 4 5 5 1
10 11 9 8 10 9 9 10 9 8 7 7 7 6 5 4 5 6 6 6 6 5 3 3 2 4 6 3 2 2 3 1 2 3 2 1 3 4 4 4 3 4 7 4 4 5 5 5 5 5 5 5 7 6 7 4 5 5 5 6 7 7 5 2 2 4 1 6 5 9 9 10 11 10 9 8 9 8 7 7 7 6 6 1 4
10 9 10 8 8 8 7 6 7 6 6 6 7 7 7 6 4 5 6 6 6 4 2 2 3 4 3 2 3 4 3 3 2 2 2 1 1 2 0 1 3 2 4 5 4 3 5 5 6 5 5 6 7 8 2 2 1 3 5 7 7 2 1 3 4 3 3 5 5 11 9 8 10 11 11 11 10 10 9 9 9 8 7 7 7
7 9 8 7 6 6 6 5 4 5 6 5 5 5 6 3 4 3 3 3 3 3 3 4 4 3 2 3 5 5 2 2 1 1 2 2 2 3 2 2 2 2 3 5 3 1 1 3 2 4 5 5 4 3 3 2 3 3 5 6 4 4 2 2 3 2 1 2 6 11 9 9 10 11 12 11 12 11 12 11 11 10 10 10 11
8 8 7 7 5 6 6 4 4 3 2 3 4 4 3 3 3 4 4 3 3 2 4 4 4 3 2 4 5 5 1 2 1 1 5 6 5 5 4 2 3 2 4 4 1 1 2 3 2 3 3 3 4 2 1 2 2 2 3 4 4 4 5 4 3 3 4 6 4 9 12 13 12 12 13 14 13 14 13 13 12 12 11 11 13
8 6 7 6 5 6 5 6 5 3 2 3 4 2 4 3 3 4 2 4 3 3 3 3 3 3 5 3 3 4 4 2 2 1 3 4 4 2 2 2 1 3 2 4 2 2 2 2 2 2 3 3 3 5 4 3 0 4 3 3 4 4 4 3 1 2 2 1 2 6 11 10 11 12 12 14 14 15 15 14 14 14 14 8 14
9 8 6 5 6 5 6 7 4 2 3 3 3 3 4 3 2 2 2 0 4 4 4 2 1 3 4 3 3 2 2 3 3 4 4 6 6 4 1 3 6 4 4 0 5 3 2 1 3 2 3 0 1 4 5 4 1 5 4 3 3 4 4 3 3 3 0 1 1 4 9 10 11 12 12 14 15 15 15 15 15 15 13 11 13
8 7 5 5 5 4 4 6 3 4 1 4 3 5 5 1 2 1 2 4 2 4 3 1 2 3 2 2 3 3 2 4 5 4 6 7 1 1 2 2 2 3 2 4 2 1 2 2 2 2 0 2 2 3 3 2 3 2 3 4 2 2 2 4 4 3 3 2 2 2 3 10 12 11 12 13 14 15 15 16 16 16 16 12 14
7 6 4 7 4 3 6 5 4 7 10 13 13 12 12 11 11 7 3 2 2 2 1 0 2 1 1 3 2 1 3 1 0 1 1 2 1 3 2 0 0 2 2 2 1 1 2 2 3 3 3 2 4 3 3 3 3 4 4 5 3 3 3 1 3 3 4 3 4 4 4 3 8 12 13 13 13 14 15 16 16 17 16 15 13
4 5 9 9 12 12 11 11 9 8 8 9 4 1 1 2 4 6 9 2 3 2 1 2 1 1 2 2 2 1 0 3 0 1 2 3 2 1 1 1 1 1 1 1 1 1 0 3 1 2 2 3 4 3 3 3 3 4 3 5 3 2 2 1 3 5 6 3 4 2 3 5 6 11 14 14 15 14 14 16 17 17 17 17 15
6 7 11 8 4 6 4 2 5 8 5 4 3 2 3 1 2 0 5 9 4 2 2 2 1 1 2 2 1 1 1 1 0 1 1 2 1 2 3 2 1 1 0 0 1 1 1 2 1 1 1 2 3 4 3 3 4 4 3 3 3 5 2 3 3 4 4 6 3 6 6 6 6 4 6 14 16 15 15 15 16 16 17 18 16
9 8 8 7 6 6 5 5 6 4 3 2 1 3 1 1 3 2 1 3 7 4 2 2 3 1 2 0 2 1 2 1 2 2 1 1 2 1 3 2 3 3 4 3 3 2 2 2 5 4 2 3 3 3 3 4 3 4 3 3 5 4 3 4 3 3 5 4 4 5 5 6 5 5 6 5 9 14 14 16 15 16 17 17 17
9 7 8 7 8 7 5 4 6 5 4 2 2 2 1 2 2 2 2 2 6 6 3 1 3 2 2 2 2 2 2 2 2 2 2 1 1 2 0 2 3 2 3 3 3 3 3 3 2 3 4 3 4 5 4 4 3 4 4 5 4 3 4 4 4 4 4 4 4 3 3 4 4 4 5 5 5 9 15 16 17 17 17 16 17
9 9 8 6 7 6 5 5 5 5 3 2 2 2 1 2 1 2 2 1 6 7 1 2 1 2 3 3 2 3 3 2 3 3 2 3 3 3 2 3 1 2 1 1 2 3 3 3 2 2 3 3 3 5 4 4 4 3 4 4 4 3 3 4 3 4 4 4 4 4 4 4 3 5 3 6 5 5 11 16 17 18 18 17 17
7 9 8 8 8 6 5 3 5 4 3 2 3 3 1 2 3 2 4 4 3 8 3 2 2 3 3 3 4 3 2 4 3 3 3 2 2 2 3 4 3 3 4 2 4 3 3 3 4 3 3 3 3 4 5 5 5 5 4 4 4 4 4 4 4 4 4 5 4 3 4 4 4 4 5 4 4 5 5 11 17 17 18 17 18
8 9 8 7 5 6 5 4 4 4 4 3 3 3 2 3 2 3 2 3 5 7 6 1 4 4 3 4 4 4 4 5 6 6 6 6 6 6 6 7 7 6 5 6 6 5 6 5 4 4 3 3 3 3 4 5 5 5 6 7 6 6 5 5 4 4 4 4 4 5 4 5 4 4 3 4 4 5 5 5 6 7 10 17 17
9 8 10 8 6 6 5 5 4 3 4 3 3 2 2 2 2 1 3 5 4 8 1 6 5 5 6 6 6 6 7 7 7 7 7 6 6 6 7 8 7 6 7 8 7 6 8 7 7 7 7 6 4 3 3 5 6 6 7 6 6 6 6 6 5 4 4 3 3 4 5 5 5 3 3 4 3 4 4 3 5 6 6 10 18
10 9 10 9 7 7 6 7 5 4 3 2 3 3 3 0 2 4 3 3 7 4 5 5 5 6 8 7 7 7 7 7 7 7 7 7 6 6 6 7 7 7 6 6 6 6 6 6 6 5 7 7 6 6 6 7 7 5 5 6 6 6 8 7 6 5 3 3 3 5 6 5 4 3 3 3 4 5 5 5 5 6 6 5 9
9 10 10 10 8 8 7 6 4 4 4 3 2 2 2 2 3 3 2 7 4 3 5 4 5 6 8 8 7 8 8 8 7 7 7 8 7 6 6 6 6 5 5 5 6 5 6 6 6 6 6 6 5 6 7 8 6 8 10 9 7 4 5 4 1 3 3 4 5 6 5 3 3 3 3 5 6 7 6 5 5 6 7 6 5
11 9 10 11 9 8 7 7 6 5 4 4 2 2 3 4 5 3 7 2 5 5 5 5 5 7 7 8 8 8 8 8 9 8 7 7 7 7 6 6 6 5 5 5 4 6 5 6 7 6 7 5 5 5 7 6 6 7 7 5 5 9 7 1 5 1 3 4 5 6 6 6 6 5 4 3 5 5 6 4 4 4 5 6 6
9 8 7 9 8 6 6 6 6 5 4 4 4 2 4 5 4 4 2 3 4 5 6 6 7 7 8 7 8 8 8 7 8 7 7 7 7 7 6 5 6 6 6 5 5 6 6 6 6 6 6 6 6 6 6 6 5 8 7 5 7 4 6 3 11 8 8 7 4 4 4 4 5 6 4 4 5 5 5 5 6 4 6 6 6
10 9 8 7 6 7 6 7 7 6 4 3 2 2 4 4 3 4 4 5 4 4 5 6 6 7 7 7 7 7 7 6 6 7 6 6 6 6 6 6 5 5 5 5 5 6 6 6 7 6 7 6 7 5 5 7 8 7 5 6 4 3 5 8 10 9 4 8 9 8 6 6 4 4 4 4 4 5 5 5 4 4 4 5 5
10 9 8 8 9 7 7 8 7 6 5 5 1 2 3 4 3 5 4 4 4 4 5 5 6 6 6 5 7 7 7 6 6 6 7 6 6 5 5 5 5 5 4 3 6 6 7 7 7 6 7 8 7 6 6 6 8 7 8 6 5 5 7 10 8 7 10 6 7 9 10 9 6 6 5 5 4 5 4 4 4 4 4 4 5
9 8 7 8 9 7 8 9 7 5 4 3 4 3 3 4 2 3 4 5 6 5 5 5 6 5 5 6 6 5 6 6 6 6 6 6 4 5 5 5 6 5 5 7 6 6 5 5 6 7 7 7 7 7 8 8 8 6 9 8 8 7 7 8 7 9 9 9 8 7 8 10 11 11 10 8 9 8 7 6 6 6 6 6 6
9 7 7 7 9 7 7 8 7 8 6 4 5 5 4 3 3 6 6 6 5 5 5 6 6 6 6 5 5 5 6 6 6 7 6 4 3 5 5 6 6 6 5 6 6 5 5 5 8 7 6 6 7 7 6 7 8 7 9 9 8 7 7 6 6 7 8 9 12 10 8 10 12 10 8 10 11 10 10 9 9 8 6 5 5
7 6 5 7 8 10 10 10 9 8 7 7 6 5 4 3 3 4 5 5 5 4 4 5 7 5 6 5 5 6 5 6 6 5 4 6 6 6 6 6 6 6 6 6 6 5 5 8 7 7 8 8 8 7 6 7 7 7 9 8 8 8 8 7 8 10 9 10 9 10 12 13 11 7 9 10 11 13 13 13 12 11 9 7 6
6 6 5 7 8 9 11 11 10 7 6 6 5 5 5 4 5 4 6 4 5 5 4 6 6 5 5 5 4 3 4 4 4 5 6 8 7 6 6 7 6 6 6 7 6 6 7 8 8 8 8 7 6 5 7 7 6 7 7 7 8 8 8 7 8 10 8 6 8 11 11 13 13 11 11 11 14 13 13 14 14 12 11 9 8
6 6 5 8 9 10 11 11 9 7 6 6 5 5 5 5 4 5 5 6 5 4 4 5 6 5 5 5 4 3 4 4 4 5 6 6 6 6 6 7 7 6 6 6 6 6 6 6 5 6 6 5 4 5 5 4 4 5 6 6 7 7 7 8 9 9 9 8 10 11 11 10 12 15 12 13 13 14 12 11 11 12 11 11 5
Wind_Direction
115 116 118 121 123 120 118 115 113 115 115 111 108 106 105 104 101 100 99 100 100 100 99 98 92 83 83 84 82 75 69 72 72 74 78 79 82 86 86 88 94 96 99 99 94 90 86 84 84 82 80 79 78 75 74 81 80 76 74 74 78 87 96 99 99 97 91 88 85 81 76 72 71 68 62 58 55 52 52 64 70 65 61 56 55
121 117 121 124 125 121 121 118 116 115 115 114 113 112 108 106 104 103 104 104 102 99 100 96 92 88 89 85 82 77 77 77 77 78 78 80 83 88 94 94 98 101 101 98 94 91 89 86 84 81 78 78 78 79 78 75 75 80 80 76 78 83 92 98 101 106 105 99 92 84 76 75 71 66 60 60 58 57 56 56 60 61 55 62 59
116 116 120 124 126 124 121 121 119 116 115 118 116 112 112 108 107 108 107 106 105 102 98 97 92 91 89 87 84 82 83 83 87 86 90 89 93 89 91 99 100 101 97 98 98 96 91 87 84 82 80 79 80 79 82 80 84 81 82 82 79 67 55 93 100 108 116 116 109 100 88 75 69 67 66 63 61 57 63 60 58 67 68 63 59
115 116 117 124 126 124 122 123 121 120 118 117 118 115 114 113 112 110 111 110 107 104 100 93 94 94 92 91 93 92 86 86 85 86 88 91 94 97 100 103 105 104 103 104 102 99 95 89 85 82 78 75 76 77 78 83 83 80 76 85 74 48 58 69 121 121 127 132 133 121 96 85 71 69 68 69 66 62 56 59 63 64 67 70 63
114 117 123 127 127 125 123 123 123 121 120 119 119 120 118 117 116 116 114 112 108 104 101 96 96 99 97 95 93 92 89 86 85 87 92 95 98 100 101 105 107 105 105 103 98 97 96 94 87 83 81 77 74 75 75 81 82 82 77 70 73 54 33 29 60 116 109 168 193 29 103 95 83 69 69 69 70 68 65 64 61 66 77 75 66
118 124 130 128 127 126 125 123 122 123 122 122 123 123 121 119 118 117 114 113 109 105 102 101 101 100 99 96 95 92 93 90 90 89 89 94 98 102 103 104 107 109 107 103 100 99 96 90 83 76 78 80 77 77 78 79 83 82 88 81 350 17 11 343 350 286 265 227 247 265 111 98 87 73 75 68 68 65 67 70 63 54 61 72 66
124 128 126 124 126 129 127 125 125 124 124 124 124 123 123 121 119 119 117 112 109 105 105 107 104 101 100 100 96 94 91 89 88 89 93 92 90 91 100 102 105 108 108 105 104 99 95 91 82 75 71 77 78 78 82 78 70 60 48 21 4 313 296 262 273 257 257 258 226 241 137 101 96 89 78 75 72 76 78 67 60 52 50 65 68
126 125 123 121 124 131 128 127 126 126 125 124 124 123 123 123 120 118 116 113 111 110 110 108 104 104 101 100 98 97 94 91 88 89 92 94 96 96 96 98 97 96 93 97 100 96 91 82 77 76 72 74 81 83 85 89 72 57 20 335 298 302 297 313 305 294 298 269 255 184 109 101 99 94 76 63 53 48 64 71 67 55 49 50 51
128 118 115 117 125 130 129 128 127 126 125 126 126 126 124 124 121 118 118 116 114 112 111 108 108 105 104 102 101 97 95 92 89 86 86 95 96 94 92 92 91 90 88 83 80 80 74 74 72 70 72 67 76 90 91 99 101 67 333 304 296 307 313 307 307 307 295 261 153 39 102 104 99 91 69 70 61 55 63 58 60 63 57 52 52
116 111 113 120 128 129 127 125 127 127 127 126 127 127 124 122 122 121 118 117 116 114 111 108 107 105 103 102 101 98 91 89 89 90 87 84 86 81 89 97 96 92 95 93 88 90 91 78 68 65 59 60 60 77 109 105 115 146 290 304 303 299 302 300 302 302 283 282 75 76 65 85 82 81 83 72 60 61 61 65 66 64 58 54 51
118 116 116 122 128 126 124 126 127 125 124 125 126 125 125 122 122 119 119 117 115 113 110 109 106 107 105 104 101 98 94 92 94 93 91 88 83 83 86 82 81 87 94 102 94 79 77 75 60 53 50 55 61 72 95 137 153 172 253 275 287 289 294 297 305 290 275 95 104 98 92 92 83 89 84 71 67 64 59 58 55 55 51 51 47
119 113 114 120 126 124 128 125 122 122 122 123 123 124 124 123 120 120 118 116 116 114 111 109 109 108 107 105 102 100 102 102 98 94 92 89 89 88 87 86 94 87 83 79 82 77 61 68 61 40 35 42 60 59 86 124 178 216 262 276 282 289 296 305 308 287 289 71 64 98 88 92 100 97 86 79 74 64 60 55 58 51 48 44 42
114 113 112 127 128 127 126 121 123 120 121 123 123 123 123 123 121 120 119 118 116 114 113 110 108 107 108 106 106 105 105 105 101 98 95 93 89 87 88 94 93 96 103 96 94 89 75 63 57 35 25 29 38 61 74 152 185 222 260 273 287 294 297 301 298 296 256 110 153 107 101 93 98 103 95 87 73 70 71 77 62 55 47 40 41
116 118 122 129 132 131 124 120 119 121 121 121 121 120 124 125 123 120 120 119 117 116 111 110 109 110 109 108 108 107 106 106 104 102 98 94 90 87 85 84 86 89 95 103 97 93 85 67 47 33 22 20 28 38 75 130 190 237 257 276 285 291 299 300 291 284 95 141 30 96 103 101 105 106 105 96 81 73 63 57 58 55 57 45 49
127 124 124 129 135 134 125 114 103 103 104 109 114 120 124 125 123 122 121 120 116 114 111 111 110 110 110 110 109 108 106 103 101 95 91 88 87 83 80 81 84 82 85 92 101 95 83 73 53 34 21 22 15 30 42 120 207 247 269 282 288 295 302 308 307 294 87 24 201 106 102 104 123 118 118 96 83 95 79 69 63 57 60 59 53
127 126 129 135 134 136 133 114 108 112 111 115 118 123 126 128 126 125 123 121 118 116 115 114 114 113 112 110 110 107 102 100 98 96 90 86 85 84 81 82 83 83 86 95 97 94 98 84 66 39 25 20 26 356 15 42 250 264 284 286 292 296 294 301 294 302 268 133 112 103 101 111 119 115 105 101 101 85 84 93 71 50 49 65 59
129 132 134 134 140 138 134 133 120 111 109 112 117 124 128 129 128 127 124 121 121 118 117 118 118 117 114 112 111 109 106 103 98 94 87 82 79 82 85 82 82 88 96 99 99 99 93 96 73 20 27 37 19 21 321 255 276 283 280 283 282 288 297 304 296 297 354 341 55 104 114 118 131 126 118 124 120 90 82 74 56 71 69 46 54
138 136 135 142 140 137 138 136 133 126 116 112 115 122 130 130 129 129 128 125 123 123 121 122 121 121 121 121 119 120 118 111 103 94 93 91 89 91 93 89 85 89 96 98 100 100 98 71 29 346 340 17 27 286 250 240 246 267 277 282 287 293 301 308 287 281 90 259 92 92 103 124 132 128 122 139 113 119 118 80 46 49 15 65 45
135 139 143 140 138 141 138 144 144 139 135 126 122 124 132 133 132 131 130 130 130 131 131 128 130 132 136 139 139 134 126 120 117 116 110 100 102 95 86 89 98 98 101 114 116 119 113 108 332 320 304 311 287 264 233 216 222 241 260 274 287 296 307 306 277 280 237 99 102 106 119 136 126 128 136 119 147 140 108 94 43 16 21 38 36
139 142 141 138 142 140 144 148 144 146 146 134 128 128 133 135 134 134 135 138 141 141 142 141 142 147 151 151 150 138 133 133 135 134 124 115 107 98 98 99 112 120 125 139 146 151 180 239 263 283 284 281 287 263 245 226 219 227 244 262 277 300 303 291 290 278 77 111 107 107 133 144 136 144 158 173 166 175 176 14 154 324 40 19 4
130 132 132 139 145 145 152 142 147 145 139 135 139 128 134 137 138 141 144 150 153 150 145 148 154 164 157 158 161 159 154 143 163 143 143 128 123 125 131 136 133 142 155 160 164 186 191 218 246 255 275 272 270 260 245 230 223 224 235 260 280 289 277 272 272 300 257 125 117 125 150 139 146 152 190 182 186 189 231 189 252 251 305 273 324
135 117 139 143 144 146 142 136 138 137 139 143 142 135 144 148 147 152 155 157 156 153 156 165 172 171 175 165 182 196 167 149 185 154 145 134 135 147 156 154 163 163 181 184 192 204 211 219 237 248 253 257 258 254 223 221 225 227 232 237 258 258 266 272 288 321 313 77 117 143 151 151 150 166 184 195 191 205 209 206 202 263 259 287 115
131 141 150 148 145 135 142 141 142 143 141 142 146 149 164 152 154 167 159 163 166 167 179 184 180 171 183 175 191 184 111 144 165 168 139 149 142 164 173 184 186 188 191 194 199 212 220 228 231 242 253 266 265 245 232 186 201 226 232 237 238 242 255 251 256 299 291 106 128 152 153 152 157 167 199 205 204 201 213 192 228 255 268 259 187
138 140 148 143 144 139 146 143 151 152 151 142 147 161 179 164 171 163 154 174 175 185 190 212 178 168 150 96 74 86 82 87 106 130 137 129 149 166 189 199 206 208 210 210 219 230 226 229 242 249 260 265 243 241 243 188 188 190 203 224 228 234 245 248 279 256 255 175 128 158 157 154 159 176 202 218 224 219 212 217 220 229 263 261 289
135 139 141 143 139 142 148 158 150 160 138 144 157 169 168 172 171 159 168 173 185 207 192 226 83 64 89 92 108 105 114 96 55 27 32 40 140 179 188 206 214 217 209 232 207 215 208 221 216 219 234 235 244 249 244 184 200 182 201 218 224 225 242 271 262 259 337 70 121 159 164 160 167 179 194 221 231 233 226 226 222 222 247 154 232
136 137 137 140 135 142 145 152 161 148 152 161 164 161 161 183 182 156 169 181 190 169 174 115 78 81 107 126 96 73 37 25 65 83 11 47 29 348 232 238 224 244 175 226 226 209 186 225 200 197 218 233 232 240 260 356 212 213 202 216 230 213 312 271 275 316 52 109 153 171 172 165 173 179 199 215 227 233 231 232 237 230 231 237 181
143 133 136 132 137 142 147 152 157 152 164 181 142 145 188 150 126 131 199 188 125 137 162 109 111 111 107 108 92 67 21 128 36 345 63 354 272 244 197 202 277 240 217 232 226 238 288 282 280 207 219 241 267 276 254 190 222 274 302 314 328 326 278 279 269 271 277 159 159 165 175 176 180 189 195 210 223 233 231 230 234 232 227 215 204
130 128 126 127 146 147 132 164 136 149 182 106 120 190 103 105 142 172 202 137 144 176 86 99 108 133 129 92 93 110 176 316 60 226 155 187 206 208 199 189 246 262 273 271 136 332 272 251 281 285 238 247 282 289 178 291 320 271 274 271 280 253 274 272 262 323 324 300 148 189 180 186 189 191 194 204 218 226 234 238 240 242 245 234 197
109 115 115 121 147 126 146 158 144 165 88 106 198 137 119 132 177 201 139 139 162 120 114 114 156 131 104 96 105 132 146 180 158 40 342 323 280 262 183 144 206 265 324 326 333 275 270 272 265 283 318 331 6 331 324 278 90 347 259 257 260 265 272 284 332 304 279 26 319 191 202 197 198 196 199 205 214 221 227 233 237 245 257 237 175
120 113 115 138 130 146 155 140 155 104 94 235 247 108 132 144 186 82 81 127 44 68 82 78 32 59 104 142 131 135 139 115 171 166 137 260 247 246 174 145 181 185 197 203 265 224 233 229 252 244 284 8 13 291 288 323 52 223 312 292 347 305 297 341 329 308 36 303 77 359 213 213 210 209 207 210 215 220 225 228 233 239 246 186 190
94 107 128 124 106 160 137 111 96 78 355 263 34 39 38 28 58 55 29 56 56 54 46 337 55 97 123 103 131 155 165 168 192 160 187 187 218 321 273 122 308 214 172 184 235 308 285 289 307 306 191 302 239 256 271 14 296 259 228 261 214 240 13 276 242 264 268 217 121 175 209 225 226 222 220 218 219 220 222 226 230 238 242 212 188
108 135 116 94 136 120 89 83 71 41 15 20 26 15 11 349 336 352 6 38 45 51 112 328 72 137 99 140 159 164 185 149 125 283 148 67 170 212 202 134 108 36 47 36 4 334 316 313 329 339 324 281 282 289 296 266 285 304 292 282 233 199 187 307 307 264 264 243 212 219 226 208 221 228 231 229 229 227 224 226 230 235 238 248 205
132 119 107 79 54 26 27 19 30 60 58 73 37 336 107 98 333 335 316 346 22 352 1 32 149 143 110 126 149 124 66 139 353 321 94 194 206 174 225 120 182 112 72 37 272 257 252 288 200 247 315 317 284 276 261 267 267 261 275 281 280 167 211 238 230 252 254 265 254 176 236 225 221 226 228 232 232 230 230 229 230 233 236 241 239
118 77 64 71 101 114 125 110 56 61 63 106 170 102 17 334 132 77 330 329 326 349 299 194 98 62 199 121 106 98 136 37 69 44 28 354 267 316 62 352 71 94 16 201 313 268 211 254 282 300 303 315 312 297 323 322 301 299 293 304 314 299 261 216 246 260 212 215 192 168 207 235 240 227 227 233 232 231 232 232 232 235 237 238 242
75 72 81 92 84 75 89 88 88 78 68 69 48 61 97 263 6 355 97 270 281 282 281 72 78 347 27 13 101 62 46 64 87 107 8 352 2 252 63 64 351 12 46 345 336 322 7 349 10 344 350 307 309 324 307 288 304 309 307 331 310 310 305 285 279 290 288 274 227 218 225 227 222 197 202 206 221 226 226 232 232 234 236 238 240
90 109 114 108 87 99 115 132 128 128 127 119 59 30 10 350 74 310 339 354 310 295 240 232 112 218 139 92 61 72 67 36 18 33 15 296 36 19 5 43 22 11 48 13 335 356 332 28 9 346 338 329 327 313 310 301 293 298 310 287 275 276 284 289 292 289 288 304 295 275 246 233 228 217 191 209 208 217 221 225 228 230 233 236 238
125 127 118 108 106 119 129 128 98 99 108 60 102 76 19 336 26 327 294 175 284 286 293 315 49 104 101 79 74 52 45 37 38 49 307 349 34 357 11 48 277 58 41 358 11 6 356 347 334 326 317 313 308 303 310 311 301 281 269 277 286 282 274 276 273 278 289 285 280 277 271 265 254 271 231 215 221 223 216 221 227 228 229 233 235
111 114 124 120 118 100 103 103 99 106 95 93 45 87 28 357 25 0 20 338 298 273 283 119 181 73 61 78 67 54 42 50 25 32 5 3 46 29 22 3 11 31 35 358 17 354 360 4 340 331 319 325 315 311 320 323 314 303 300 292 278 270 268 262 257 256 256 265 261 267 265 258 244 235 245 241 235 215 203 215 224 227 228 230 232
109 119 112 89 106 109 112 114 95 116 122 123 57 5 29 55 5 10 321 306 344 302 296 57 64 58 67 70 57 41 46 30 35 28 19 9 25 27 21 18 20 29 27 26 13 9 2 353 336 333 329 299 306 316 305 301 301 307 302 295 288 277 263 249 252 260 267 267 273 273 274 263 254 250 250 254 242 228 231 187 205 218 228 230 231
126 125 112 110 107 111 125 114 94 85 89 89 85 82 42 34 90 28 27 355 315 258 103 47 36 44 51 47 46 39 39 31 38 29 22 23 31 31 31 25 25 31 34 30 24 22 7 9 5 349 345 342 326 325 333 328 311 302 286 280 274 268 256 245 232 230 243 257 269 268 264 268 256 246 238 249 258 263 263 189 199 205 218 225 226
129 123 117 121 132 135 136 109 109 104 119 119 81 67 80 175 41 60 44 281 237 190 66 53 44 42 42 41 40 42 39 34 36 32 28 20 21 34 30 35 26 24 29 30 26 18 7 8 1 352 357 353 345 351 3 347 317 312 324 310 304 287 270 252 231 226 236 273 274 270 265 277 276 272 275 267 262 257 244 238 216 199 213 223 216
125 126 126 132 128 122 111 113 107 113 106 98 88 103 101 85 78 48 46 223 232 76 72 63 56 49 46 41 39 40 36 33 30 37 34 23 18 23 31 36 35 22 18 25 26 16 11 7 8 354 0 346 342 354 6 354 353 348 332 325 305 302 312 314 314 61 356 287 277 276 271 262 274 271 265 259 252 251 247 230 226 204 198 211 218
126 126 127 126 125 122 120 113 119 124 113 116 137 99 75 73 90 87 208 249 45 64 74 66 65 61 48 46 36 39 41 34 29 32 32 24 21 17 15 30 27 19 8 17 14 21 6 4 15 356 346 346 340 355 4 1 331 337 309 302 336 329 323 6 20 7 284 271 262 264 271 271 270 271 269 284 300 297 295 280 240 220 183 201 219
121 126 128 121 117 109 114 120 109 102 109 97 93 97 87 87 65 180 227 121 120 101 85 69 60 58 56 50 44 40 43 42 36 36 36 30 23 20 9 19 27 17 7 4 7 14 4 4 10 4 356 351 352 351 350 339 348 355 348 339 299 292 300 13 346 327 301 281 290 296 284 269 274 280 270 269 273 271 269 269 270 235 222 209 203
129 131 128 126 126 128 130 113 105 95 89 103 131 102 100 98 184 224 140 118 99 83 78 68 65 61 55 45 49 45 39 39 40 37 32 32 24 19 14 5 25 24 11 352 12 14 7 6 11 6 9 2 350 343 342 354 4 348 1 340 335 325 354 329 335 303 336 345 326 314 315 311 299 282 257 254 260 263 263 276 285 287 246 227 215
124 121 128 126 126 122 112 108 115 119 115 109 116 118 109 128 164 225 177 119 97 83 79 86 79 70 68 61 52 44 50 36 34 38 32 27 26 18 17 9 13 14 348 358 32 22 8 13 6 10 3 15 353 335 351 353 356 358 22 4 350 330 329 327 321 322 327 310 330 333 322 308 302 302 297 294 292 294 292 285 288 289 297 268 240
114 127 128 119 116 116 119 115 108 103 98 97 125 125 153 189 166 122 98 87 92 78 72 65 83 89 85 72 63 46 41 42 37 30 31 31 22 23 27 15 12 8 359 40 27 27 13 10 15 18 15 8 5 2 2 355 347 3 7 354 351 345 345 347 340 327 323 330 337 337 332 342 348 341 332 330 325 317 309 303 290 279 271 265 256
119 122 123 126 121 113 96 89 82 74 51 50 79 62 51 44 66 83 84 89 96 95 87 81 78 71 60 55 67 53 39 39 35 30 31 28 20 40 31 30 12 7 16 38 25 23 359 32 33 21 20 16 19 18 357 1 359 349 352 349 350 344 345 329 330 328 323 326 325 331 334 340 338 331 331 346 340 334 333 329 317 304 289 275 270
117 120 118 116 114 110 102 89 85 78 69 53 44 55 38 23 30 86 93 95 102 103 97 94 87 74 69 55 54 62 60 46 40 32 40 31 21 25 34 38 21 13 18 34 26 14 2 39 28 31 23 24 18 9 360 10 1 354 348 356 342 347 345 344 345 357 347 336 322 330 329 332 328 322 345 340 340 341 338 330 322 316 306 294 277
111 120 124 128 113 100 94 94 91 87 81 77 76 69 42 33 44 64 97 99 99 93 92 98 98 93 84 74 57 61 70 61 50 34 23 42 29 22 23 42 31 22 24 33 22 5 33 36 30 37 32 28 20 3 21 13 359 0 1 349 351 353 349 349 2 349 342 335 332 327 330 330 326 329 334 336 338 335 332 324 319 314 306 298 350
137 141 120 100 95 88 86 89 91 95 93 89 92 82 58 49 54 54 80 105 106 104 106 112 110 106 101 90 79 55 53 64 64 42 33 34 36 31 23 37 39 27 27 35 22 19 36 41 35 41 44 38 28 22 24 17 3 4 5 2 0 359 347 346 351 351 346 340 334 324 323 324 327 320 323 329 326 323 316 312 321 323 335 3 19